Keahole Point, HI

5:27 AM HST on April 20, 2018 (GMT -1000)
Kona International At Keahole

Weather History for PHKO - March, 2014

Change the Weather History Date:

Friday, March 14, 2014

  Actual Average Record
Temperature  
Mean Temperature 78 °F -  
Max Temperature 82 °F 79 °F 88 °F (1986)
Min Temperature 73 °F 67 °F 63 °F (1993)
Cooling Degree Days 12    
Growing Degree Days 28 (Base 50)    
Moisture  
Dew Point 64 °F    
Average Humidity 63    
Maximum Humidity 69    
Minimum Humidity 56    
Precipitation  
Precipitation 0.00 in - - ()
Sea Level Pressure  
Sea Level Pressure 30.02 in    
Wind  
Wind Speed 6 mph (WNW)    
Max Wind Speed 10 mph    
Max Gust Speed -    
Visibility 10 miles    
Events      
Averages and records for this station are not official NWS values.
T = Trace of Precipitation, MM = Missing Value Source: NWS Daily Summary

Daily Weather History Graph

Daily Weather History Graph

Search for Another Location

Airport or City:

Astronomy

Mar. 14, 2014 Rise Set
Actual Time 6:33 AM HST 6:33 PM HST
Civil Twilight 6:11 AM HST 6:55 PM HST
Nautical Twilight 5:45 AM HST 7:21 PM HST
Astronomical Twilight 5:20 AM HST 7:46 PM HST
Moon 5:13 PM HST (3/14) 5:08 AM HST (3/14)
Length of Visible Light 12h 44m
Length of Day
12h 00m
Waxing Gibbous, 97% of the Moon is Illuminated
Mar 14
Waxing Gibbous
Mar 16
Full
Mar 23
Last Quarter
Mar 30
New
Apr 6
First Quarter

Hourly Weather History & Observations

Time (HST) Temp. Heat Index Dew Point Humidity Pressure Visibility Wind Dir Wind Speed Gust Speed Precip Events Conditions
12:53 AM 75.9 °F - 62.1 °F 62% 30.05 in 10.0 mi NNE 6.9 mph - N/A   Mostly Cloudy
1:53 AM 75.0 °F - 61.0 °F 62% 30.04 in 10.0 mi NE 5.8 mph - N/A   Mostly Cloudy
2:53 AM 75.0 °F - 62.1 °F 64% 30.02 in 10.0 mi NE 3.5 mph - N/A   Partly Cloudy
3:53 AM 73.9 °F - 63.0 °F 68% 30.02 in 10.0 mi ENE 3.5 mph - N/A   Mostly Cloudy
4:53 AM 75.0 °F - 63.0 °F 66% 30.01 in 10.0 mi East 3.5 mph - N/A   Mostly Cloudy
5:53 AM 73.0 °F - 61.0 °F 66% 30.02 in 10.0 mi East 4.6 mph - N/A   Clear
6:53 AM 73.0 °F - 62.1 °F 68% 30.04 in 10.0 mi East 5.8 mph - N/A   Clear
7:53 AM 77.0 °F - 61.0 °F 58% 30.05 in 10.0 mi Calm Calm - N/A   Clear
8:53 AM 79.0 °F - 62.1 °F 56% 30.06 in 10.0 mi West 4.6 mph - N/A   Clear
9:53 AM 81.0 °F 82.7 °F 64.9 °F 58% 30.06 in 10.0 mi West 8.1 mph - N/A   Clear
10:53 AM 81.0 °F 82.7 °F 64.9 °F 58% 30.05 in 10.0 mi West 6.9 mph - N/A   Clear
11:53 AM 81.0 °F 82.7 °F 64.9 °F 58% 30.04 in 10.0 mi West 8.1 mph - N/A   Clear
12:53 PM 82.0 °F 83.8 °F 64.9 °F 56% 30.01 in 10.0 mi West 8.1 mph - N/A   Clear
1:53 PM 82.0 °F 84.1 °F 66.0 °F 58% 29.99 in 10.0 mi WSW 9.2 mph - N/A   Clear
2:53 PM 82.0 °F 84.5 °F 66.9 °F 60% 29.97 in 10.0 mi WSW 9.2 mph - N/A   Clear
3:53 PM 81.0 °F 83.3 °F 66.9 °F 62% 29.97 in 10.0 mi SW 9.2 mph - N/A   Clear
4:53 PM 81.0 °F 83.8 °F 68.0 °F 65% 29.98 in 10.0 mi WSW 6.9 mph - N/A   Partly Cloudy
5:53 PM 79.0 °F - 68.0 °F 69% 29.99 in 10.0 mi SW 5.8 mph - N/A   Overcast
6:53 PM 79.0 °F - 66.0 °F 64% 30.00 in 10.0 mi NE 10.4 mph - N/A   Overcast
7:53 PM 79.0 °F - 64.0 °F 60% 30.01 in 10.0 mi Calm Calm - N/A   Overcast
8:53 PM 79.0 °F - 64.0 °F 60% 30.02 in 10.0 mi North 3.5 mph - N/A   Overcast
9:53 PM 78.1 °F - 66.9 °F 68% 30.03 in 10.0 mi WNW 5.8 mph - N/A   Overcast
10:53 PM 77.0 °F - 66.0 °F 69% 30.03 in 10.0 mi WNW 3.5 mph - N/A   Scattered Clouds
11:53 PM 77.0 °F - 66.0 °F 69% 30.03 in 10.0 mi Calm Calm - N/A   Overcast